Lid_Strength_Index
2 0 -1 -1 -1 -1 -1 -1 -1 -1 -1 -1 -1 -1 -1 -1 -1 -1 -1 -1 -1 -1 -1 -1 -1 -1 -1 -1 -1 -1 -1 -1 -1 -1 -1 -1 -1 -1 -1 -1 -1 -0 -1
1 0 -0 -1 -1 -1 -1 -1 -1 -1 -1 -1 -1 -1 -1 -1 -1 -1 -1 -1 -1 -1 -1 -1 -1 -1 -1 -1 -1 -1 -1 -1 -1 -1 -1 -1 -1 -1 -1 -1 -1 -0 -1
1 -0 -0 -1 -1 -1 -1 -1 -1 -1 -1 -1 -1 -1 -1 -1 -1 -1 -1 -1 -1 -1 -2 -1 -1 -1 -1 -1 -1 -1 -1 -1 -1 -1 -1 0 -0 -1 -1 -1 -1 -1 -1
0 -0 -0 -0 -1 -1 -1 -1 -1 -1 -1 -1 -1 -1 -1 -1 -1 -1 -1 -1 -1 -2 -1 -1 -1 0 1 1 1 1 0 1 1 0 0 0 -0 -1 -1 -1 -1 -1 -1
0 0 0 -0 -1 -1 -1 -1 -1 -1 -1 -1 -1 -1 -1 -1 -1 -1 -1 -1 -1 -1 -1 -0 0 1 1 1 2 2 1 2 2 3 0 0 0 -1 -1 -1 -1 -1 -1
1 0 0 -1 -1 -1 -1 -1 -1 -1 -1 -1 -1 -1 -1 -1 -1 -1 -1 -1 -1 -0 0 1 1 1 1 1 1 2 2 3 2 1 2 1 1 -1 -1 -1 -1 -1 -1
1 1 0 -1 -1 -1 -1 -1 -1 -1 -1 -1 -1 -2 -1 -1 -1 -2 -2 -2 -1 -0 0 0 1 1 1 1 1 1 2 3 6 1 3 3 1 -1 -1 -1 -1 -1 -1
1 1 -0 1 -0 -1 -1 -1 -1 -2 -2 -1 -2 -2 -2 -2 -2 -2 -1 -0 0 1 1 1 1 1 1 2 2 2 3 4 5 5 5 5 1 -1 -2 -1 -1 -1 -1
1 1 0 0 0 0 -0 -0 -1 -1 -1 -1 -1 -2 -2 -1 -1 -0 0 1 1 1 1 2 2 2 2 2 2 3 4 5 10 7 6 5 1 -1 -1 -1 -1 -1 -1
1 1 1 1 1 0 -0 1 0 -0 -1 -1 -1 -0 -1 -0 0 1 1 1 2 2 2 2 3 3 3 3 4 4 5 6 10 9 8 5 2 1 1 0 -0 -2 -1
2 2 2 2 2 1 1 2 2 1 0 0 1 2 4 6 6 7 3 3 3 3 2 3 4 5 6 6 5 5 7 10 10 10 8 3 3 2 2 2 1 0 -1
3 3 3 3 3 2 2 3 4 4 5 6 6 8 8 9 8 7 5 3 4 4 4 4 5 7 9 11 11 9 11 11 10 10 9 4 3 3 2 2 2 1 0
3 3 4 3 3 3 4 5 6 8 8 8 9 9 10 10 9 9 10 10 11 9 11 10 11 11 11 12 11 12 11 11 11 11 9 5 4 3 3 2 2 1 1
3 4 5 5 4 4 4 5 7 9 10 10 10 10 11 11 11 11 11 11 11 12 12 12 12 12 12 11 11 11 11 12 12 11 10 6 5 4 3 2 1 1 1
3 5 5 6 4 4 5 7 8 10 10 10 10 10 11 11 11 11 12 12 12 12 12 12 12 12 12 12 11 11 12 12 12 11 11 8 6 4 3 1 1 1 1
3 4 5 6 5 4 4 7 8 10 10 10 11 10 11 11 11 12 12 12 12 13 13 13 13 13 13 13 12 12 12 12 11 11 11 11 6 4 3 1 1 -1 -1
3 4 5 5 6 5 5 7 9 9 10 11 11 11 10 11 12 12 12 13 13 13 13 13 13 13 13 13 14 13 12 12 12 12 11 11 9 6 3 2 1 1 0
3 4 4 4 5 6 6 7 9 10 10 11 11 11 11 11 11 12 13 13 13 13 13 14 14 14 14 15 15 14 13 13 12 12 12 11 9 8 6 3 3 2 2
3 4 5 5 6 6 7 7 9 10 10 11 11 11 11 11 11 12 13 13 13 13 14 14 14 15 15 15 14 14 14 14 13 12 12 11 10 9 9 6 6 5 4
3 3 4 5 5 6 7 9 10 11 11 11 11 11 11 11 12 13 13 13 13 14 14 14 15 15 15 15 13 14 15 14 14 14 13 10 10 9 10 10 11 10 5
3 3 4 5 6 6 8 9 10 10 11 12 12 11 11 12 12 13 13 13 13 14 14 14 15 15 15 15 15 15 15 13 13 13 12 12 10 10 11 11 11 11 11
5 4 4 4 6 6 6 7 9 10 12 11 11 11 11 12 12 13 13 13 14 14 15 15 15 16 15 15 16 16 17 15 14 13 13 12 12 12 11 12 12 12 12
6 5 4 4 6 6 6 9 12 12 13 13 13 12 12 12 12 12 13 14 14 14 15 15 15 15 16 15 15 16 17 18 17 14 13 13 13 13 13 12 12 12 12
8 6 4 4 6 6 7 9 10 10 12 11 11 12 12 12 13 13 13 14 14 14 15 15 14 15 15 16 15 14 16 16 17 16 14 14 14 13 14 15 14 12 12
9 8 6 5 6 7 8 8 9 9 9 13 12 13 12 13 13 13 14 14 15 15 15 15 15 15 15 16 16 16 17 17 17 16 16 16 15 15 17 16 16 16 13
10 9 7 6 7 7 8 9 9 9 13 13 13 13 13 14 14 14 14 15 15 15 15 15 15 16 16 16 16 17 17 17 17 17 17 16 17 16 16 15 14 13 12